CFG5FD LPMA-EDDF

Flight info

Callsign CFG5FD
Flight time N/A
Altitude 32000
Route DEGUN DCT RULET DCT GALPA DCT TOSDI N745 ZMR N976 DGO T429 TOPTU DCT TOU DCT GAI DCT MEN DCT NINUN DCT LATAM DCT ETREK DCT LTP DCT SOPLO DCT OMASI DCT KINNI DCT SOSAL DCT KORED DCT BERSU DCT DITON DCT LADOL T163 EMPAX EMPAX5D
Aircraft A321/M-SDE3FGHIRWY/LB1

Departure

Time 2026-05-01 15:16
Airport Cristiano Ronaldo International Airport (LPMA)

Arrival

Time N/A
Airport Frankfurt Main Airport (EDDF)
Time Latitude Longitude Altitude Speed Heading
2026-05-01 14:35 32.69440 -16.77559 177 ft 0 kts 138°
2026-05-01 14:36 32.69465 -16.77520 177 ft 0 kts 137°
2026-05-01 15:03 32.69468 -16.77523 176 ft 3 kts 138°
2026-05-01 15:03 32.69488 -16.77544 176 ft 4 kts 133°
2026-05-01 15:04 32.69502 -16.77569 176 ft 4 kts 100°
2026-05-01 15:04 32.69500 -16.77598 176 ft 4 kts 52°
2026-05-01 15:04 32.69494 -16.77606 176 ft 0 kts 46°
2026-05-01 15:06 32.69502 -16.77597 176 ft 6 kts 46°
2026-05-01 15:07 32.69552 -16.77534 176 ft 14 kts 46°
2026-05-01 15:07 32.69614 -16.77457 176 ft 12 kts 46°
2026-05-01 15:07 32.69669 -16.77388 176 ft 11 kts 46°
2026-05-01 15:07 32.69719 -16.77326 176 ft 10 kts 46°
2026-05-01 15:08 32.69762 -16.77273 176 ft 8 kts 46°
2026-05-01 15:08 32.69793 -16.77234 176 ft 0 kts 46°
2026-05-01 15:13 32.69915 -16.77178 176 ft 22 kts 360°
2026-05-01 15:14 32.70270 -16.76883 176 ft 42 kts 44°
2026-05-01 15:14 32.70483 -16.76634 176 ft 42 kts 44°
2026-05-01 15:14 32.70672 -16.76436 176 ft 8 kts 141°
2026-05-01 15:15 32.70634 -16.76457 176 ft 0 kts 226°
2026-05-01 15:15 32.70220 -16.76947 176 ft 107 kts 224°
2026-05-01 15:16 32.68674 -16.78764 334 ft 186 kts 227°
2026-05-01 15:16 32.66393 -16.79952 1531 ft 189 kts 191°
2026-05-01 15:17 32.63621 -16.80413 1883 ft 211 kts 189°
2026-05-01 15:18 32.58645 -16.79722 2676 ft 262 kts 158°
2026-05-01 15:18 32.57168 -16.78439 3285 ft 269 kts 133°
2026-05-01 15:19 32.56534 -16.71994 5047 ft 290 kts 59°
2026-05-01 15:19 32.58621 -16.67868 6248 ft 299 kts 61°
2026-05-01 15:19 32.59654 -16.65712 6820 ft 302 kts 62°
2026-05-01 15:20 32.61710 -16.61307 7958 ft 308 kts 62°
2026-05-01 15:20 32.62751 -16.59075 8525 ft 310 kts 61°
2026-05-01 15:20 32.63802 -16.56827 9112 ft 313 kts 61°
2026-05-01 15:21 32.64956 -16.54626 9670 ft 316 kts 50°
2026-05-01 15:21 32.66471 -16.52743 10202 ft 317 kts 41°
2026-05-01 15:21 32.68101 -16.50904 10435 ft 332 kts 42°
2026-05-01 15:21 32.69814 -16.48966 10565 ft 349 kts 42°
2026-05-01 15:22 32.73489 -16.44792 10812 ft 382 kts 42°
2026-05-01 15:22 32.75430 -16.42575 11088 ft 391 kts 42°
2026-05-01 15:22 32.77398 -16.40319 11546 ft 395 kts 42°
2026-05-01 15:23 32.79379 -16.38042 12045 ft 398 kts 42°
2026-05-01 15:23 32.80729 -16.36492 12381 ft 400 kts 42°
2026-05-01 15:23 32.82736 -16.34188 12883 ft 403 kts 42°
2026-05-01 15:23 32.84765 -16.31864 13357 ft 406 kts 41°
2026-05-01 15:24 32.86807 -16.29524 13846 ft 409 kts 41°
2026-05-01 15:24 32.88865 -16.27167 14262 ft 413 kts 41°
2026-05-01 15:24 32.90949 -16.24784 14650 ft 417 kts 41°
2026-05-01 15:24 32.93048 -16.22379 15046 ft 421 kts 41°
2026-05-01 15:25 32.95160 -16.19955 15443 ft 424 kts 41°
2026-05-01 15:25 32.97292 -16.17504 15836 ft 427 kts 41°
2026-05-01 15:25 32.99436 -16.15038 16224 ft 430 kts 41°
2026-05-01 15:25 33.01598 -16.12546 16598 ft 434 kts 41°
2026-05-01 15:26 33.03776 -16.10038 16979 ft 437 kts 41°
2026-05-01 15:26 33.05968 -16.07512 17359 ft 440 kts 41°
2026-05-01 15:26 33.08203 -16.04931 17732 ft 443 kts 41°
2026-05-01 15:26 33.10424 -16.02364 18097 ft 446 kts 41°
2026-05-01 15:27 33.12658 -15.99777 18449 ft 449 kts 41°
2026-05-01 15:27 33.14907 -15.97171 18765 ft 452 kts 42°
2026-05-01 15:27 33.17164 -15.94555 19089 ft 454 kts 42°
2026-05-01 15:28 33.21733 -15.89259 19702 ft 460 kts 41°
2026-05-01 15:28 33.24033 -15.86591 20025 ft 462 kts 41°
2026-05-01 15:28 33.26344 -15.83909 20347 ft 464 kts 41°
2026-05-01 15:29 33.31001 -15.78502 20974 ft 469 kts 41°
2026-05-01 15:29 33.33342 -15.75781 21283 ft 471 kts 41°
2026-05-01 15:29 33.38054 -15.70287 21905 ft 475 kts 41°
2026-05-01 15:30 33.42914 -15.64898 22514 ft 476 kts 33°
2026-05-01 15:31 33.53256 -15.54717 23671 ft 487 kts 39°
2026-05-01 15:31 33.58286 -15.49214 24167 ft 491 kts 39°
2026-05-01 15:32 33.63388 -15.43639 24656 ft 494 kts 38°
2026-05-01 15:32 33.68514 -15.38093 25135 ft 498 kts 38°
2026-05-01 15:33 33.76273 -15.29706 25833 ft 503 kts 38°
2026-05-01 15:34 33.84100 -15.21204 26471 ft 509 kts 38°